TimeEDT,TemperatureF,Dew PointF,Humidity,Sea Level PressureIn,VisibilityMPH,Wind Direction,Wind SpeedMPH,Gust SpeedMPH,PrecipitationIn,Events,Conditions,WindDirDegrees,DateUTC
12:54 AM,46.9,39.0,74,30.00,10.0,NW,13.8,23.0,0.01,,Overcast,310,2013-05-25 04:54:00
1:03 AM,46.4,39.2,76,30.00,10.0,NW,11.5,23.0,N/A,,Overcast,310,2013-05-25 05:03:00
1:54 AM,46.9,39.0,74,29.99,10.0,NW,15.0,21.9,N/A,,Overcast,310,2013-05-25 05:54:00
2:29 AM,46.4,39.2,76,29.98,10.0,NW,12.7,21.9,N/A,,Overcast,320,2013-05-25 06:29:00
2:54 AM,46.9,39.0,74,29.98,10.0,NW,8.1,-,N/A,,Overcast,320,2013-05-25 06:54:00
3:13 AM,46.4,39.2,76,29.98,10.0,NW,10.4,21.9,N/A,,Overcast,320,2013-05-25 07:13:00
3:54 AM,46.9,39.0,74,29.97,10.0,NW,10.4,16.1,0.00,Rain,Light Rain,310,2013-05-25 07:54:00
4:54 AM,48.0,37.9,68,29.98,10.0,NW,10.4,18.4,0.00,,Overcast,320,2013-05-25 08:54:00
5:54 AM,48.0,39.0,71,29.98,10.0,West,10.4,-,N/A,,Overcast,280,2013-05-25 09:54:00
6:54 AM,48.0,39.0,71,29.99,10.0,WNW,8.1,17.3,0.00,,Overcast,290,2013-05-25 10:54:00
7:54 AM,48.9,37.9,66,29.99,10.0,West,8.1,18.4,N/A,,Overcast,280,2013-05-25 11:54:00
8:54 AM,52.0,37.9,59,30.00,10.0,WNW,12.7,19.6,N/A,,Overcast,290,2013-05-25 12:54:00
9:54 AM,54.0,37.0,53,29.99,10.0,NW,10.4,18.4,N/A,,Overcast,310,2013-05-25 13:54:00
10:54 AM,55.9,35.1,45,29.99,10.0,NW,18.4,27.6,N/A,,Mostly Cloudy,320,2013-05-25 14:54:00
11:54 AM,59.0,37.0,44,29.99,10.0,NNW,15.0,28.8,N/A,,Overcast,330,2013-05-25 15:54:00
12:54 PM,59.0,34.0,39,29.99,10.0,WNW,17.3,27.6,N/A,,Overcast,290,2013-05-25 16:54:00
1:54 PM,59.0,35.1,41,29.99,10.0,WNW,9.2,29.9,N/A,,Overcast,300,2013-05-25 17:54:00
2:54 PM,59.0,34.0,39,29.99,10.0,NW,16.1,26.5,N/A,,Overcast,310,2013-05-25 18:54:00
3:54 PM,59.0,33.1,38,29.99,10.0,NW,16.1,28.8,N/A,,Overcast,310,2013-05-25 19:54:00
4:54 PM,61.0,33.1,35,29.98,10.0,NW,9.2,31.1,N/A,,Mostly Cloudy,310,2013-05-25 20:54:00
5:54 PM,61.0,33.1,35,29.99,10.0,NW,10.4,18.4,N/A,,Mostly Cloudy,310,2013-05-25 21:54:00
6:54 PM,60.1,30.0,32,30.00,10.0,WNW,10.4,25.3,N/A,,Overcast,300,2013-05-25 22:54:00
7:54 PM,59.0,30.9,35,30.03,10.0,NNW,13.8,20.7,N/A,,Mostly Cloudy,330,2013-05-25 23:54:00
8:54 PM,55.0,30.9,40,30.04,10.0,NNW,5.8,-,N/A,,Clear,330,2013-05-26 00:54:00
9:54 PM,55.0,30.9,40,30.06,10.0,NW,9.2,-,N/A,,Clear,320,2013-05-26 01:54:00
10:54 PM,55.0,30.0,38,30.06,10.0,WNW,8.1,-,N/A,,Clear,290,2013-05-26 02:54:00
11:54 PM,54.0,30.9,41,30.05,10.0,West,8.1,-,N/A,,Clear,280,2013-05-26 03:54:00